Miscellaneous Local Product
Issued by NWS North Platte, NE

Home | Current Version | Previous Version | Graphics & Text | Print | Product List | Glossary On
Versions: 1 2 3 4 5 6 7 8 9 10 11 12 13 14 15 16 17 18 19 20 21 22 23 24 25 26 27 28 29 30 31 32 33 34 35 36 37 38 39 40 41 42 43 44 45 46 47 48 49 50
000
AXUS43 KLBF 010510
MISLBF


WESTERN AND NORTH CENTRAL NEBRASKA HOURLY WEATHER ROUNDUP
NATIONAL WEATHER SERVICE NORTH PLATTE NE
1200 AM CDT WED OCT 01 2014

***STATIONS NOT REPORTING VARIABLES SUCH AS SKY/WEATHER OR
PRESSURE ARE PROVIDED BY THE NEBRASKA DEPARTMENT OF
ROADS...RAWS...AND APRS NETWORKS...AND ARE NOT UNDER
NATIONAL WEATHER SERVICE QUALITY CONTROL***

...OBSERVATIONS IN AND NEAR THE EASTERN PANHANDLE OF NEBRASKA...

CITY           SKY/WX    TMP DP  RH WIND       PRES   REMARKS
PINE RIDGE     CLOUDY    53  49  86 SW5       29.74R
CHADRON        CLOUDY    55  48  77 W8        29.75S
ALLIANCE       CLOUDY    52  45  77 W10       29.77S
SIDNEY         CLOUDY    59  42  53 W10       29.83S
WHITECLAY        N/A     49  46  88 E3          N/A
RUSHVILLE        N/A     54  45  70 N10         N/A
CRESCENT LAKE    N/A     57  42  58 W6          N/A
LISCO            N/A     56  44  64 CALM        N/A
BIG SPRINGS      N/A     57  51  81 CALM        N/A
$$

...OBSERVATIONS IN NORTH CENTRAL NEBRASKA...

CITY           SKY/WX    TMP DP  RH WIND       PRES   REMARKS
VALENTINE      MOCLDY    53  46  77 SW5       29.71S
THEDFORD       CLOUDY    60  49  66 CALM      29.75S
AINSWORTH      CLOUDY    59  46  61 S8        29.71S
O`NEILL        PTCLDY    62  61  97 SE6       29.73S
ORD            MOCLDY    60  59  96 SE7       29.72S
BROKEN BOW     CLOUDY    55  51  86 CALM      29.73F
SPRINGVIEW       N/A     55  49  80 CALM        N/A
ROSE             N/A     67  51  54 E5          N/A
NEWPORT          N/A     65  48  55 S6          N/A
SARGENT          N/A     58  54  86 CALM        N/A
COMSTOCK         N/A     64  62  94 S8          N/A
CHAMBERS         N/A     60  58  94 S3          N/A
EWING            N/A     62  60  95 SE6         N/A
$$

...OBSERVATIONS IN SOUTHWEST NEBRASKA AND FAR NORTHEAST COLORADO...

CITY           SKY/WX    TMP DP  RH WIND       PRES   REMARKS
WRAY           FAIR      55  48  76 W6        29.80R
HOLYOKE        FAIR      59  46  63 NW7       29.80R
IMPERIAL       CLOUDY    60  48  64 W3        29.77R
OGALLALA       CLOUDY    57  52  84 CALM      29.78R
NORTH PLATTE   CLOUDY    57  49  74 NW3       29.75R
MCCOOK         CLOUDY    61  52  72 E3        29.75R
LEXINGTON      MOCLDY    56  54  93 CALM      29.74S
PAXTON           N/A     60  50  70 CALM        N/A
SUTHERLAND       N/A     62  44  52 SW3         N/A
BRADY            N/A     57  48  72 CALM        N/A
GOTHENBURG       N/A     61  46  57 CALM        N/A
CALLAWAY         N/A     54  49  83 S5          N/A
$$

...SOME WEATHER OBSERVATIONS FROM AROUND THE REGION...

CITY           SKY/WX    TMP DP  RH WIND       PRES   REMARKS
DENVER         MOCLDY    55  37  50 W8        29.88S
LARAMIE        CLOUDY    42  35  76 SW13      29.93F
CHEYENNE       CLOUDY    51  38  60 SW9       29.89F
SCOTTSBLUFF    CLOUDY    59  44  57 W12       29.79S
RAPID CITY     MOCLDY    53  44  71 W5        29.70S
PIERRE         PTCLDY    56  49  77 SW8       29.65R
WINNER         FAIR      63  46  54 S7        29.69R
SIOUX FALLS    CLOUDY    62  59  90 S12       29.76S
OMAHA          TSTM      66  63  90 SE21G30   29.76F FOG
GRAND ISLAND   FOG       63  61  93 SE8       29.75S VSB 3/4
KANSAS CITY    CLOUDY    72  59  63 SE12      29.79S
WICHITA        CLOUDY    74  63  68 S18G28    29.70F
HAYS           CLEAR     61  55  82 CALM      29.71R
LIBERAL        PTCLDY    57  41  54 CALM      29.77F
GOODLAND       MOCLDY    55  48  77 W7        29.80R
$$



USA.gov is the U.S. government's official web portal to all federal, state and local government web resources and services.